Location: Ab? ar R?sh Ba?r?
(24.1861°N, 32.8847°E)
Time: 12:00:56
(UTC+00:00)

Cosmos 2251 Rocket - Pass Details

Date: 24 October 2021
Orbit: 765 x 791 km, 74.0° (Epoch: 03 December)

Event Time Altitude Azimuth Distance (km) Brightness Sun altitude
Rises 16:36:31 0° 356° (N) 3,231 6.7 -19.3°
Reaches altitude 10° 16:39:03 10° 4° (N) 2,301 5.9 -19.9°
Enters shadow 16:42:56 36° 46° (NE) 1,203 4.1 -20.8°
